Location: Detroit
(42.3310°N, 83.0460°W)
Time: 00:30:36
(UTC-04:00)

A-11 Canister half - Pass Details

Date: 14 February 2023
Orbit: 1526 x 1682 km, 47.3° (Epoch: 20 March)

Event Time Altitude Azimuth Distance (km) Brightness Sun altitude
Rises 01:45:00 0° 202° (SSW) 4,732 - -58.1°
Reaches altitude 10° 01:48:27 10° 194° (SSW) 3,732 - -57.8°
Maximum altitude 01:56:34 34° 134° (SE) 2,310 - -57.0°
Exits shadow 02:03:23 14° 78° (ENE) 3,365 11.0 -56.3°
Drops below altitude 10° 02:04:36 10° 73° (ENE) 3,695 11.3 -56.2°
Sets 02:07:58 0° 65° (ENE) 4,681 12.0 -55.8°
